Location: Casaglia
(44.0333°N, 11.5167°E)
Time: 00:50:28
(UTC+00:00)

Daily predictions for brighter satellites

Satellite Brightness Start Highest point End
(mag) Time Altitude Azimuth Time Altitude Azimuth Time Altitude Azimuth
STARLINK-1268 4.2 00:04:29 38° NE 00:04:29 38° NE 00:06:32 10° NE
STARLINK-1303 3.4 00:05:53 77° NE 00:05:53 77° NE 00:09:24 10° NE
Cosmos 1570 Rocket 4.0 00:04:53 50° SW 00:06:16 78° WNW 00:11:34 10° NNE
STARLINK-66 3.8 00:07:09 47° N 00:07:09 47° N 00:10:02 10° NE
Cosmos 1709 Rocket 3.9 00:05:05 44° SSW 00:07:10 81° W 00:13:23 10° N
Cosmos 1763 Rocket 4.1 00:05:57 35° WSW 00:07:29 46° WNW 00:12:23 10° N
Cosmos 1400 Rocket 3.8 00:04:06 10° N 00:08:04 43° ENE 00:09:10 34° ESE
STARLINK-1316 3.9 00:09:24 44° NE 00:09:24 44° NE 00:11:43 10° NE
STARLINK-1312 3.3 00:09:13 82° N 00:09:13 82° N 00:12:53 10° NE
STARLINK-1257 3.9 00:10:14 46° NE 00:10:14 46° NE 00:12:36 10° NE
Cosmos 2227 Rocket 3.1 00:04:45 10° NW 00:09:41 31° WSW 00:10:10 31° WSW
STARLINK-1256 3.9 00:11:11 46° NNE 00:11:11 46° NNE 00:13:34 10° NE
STARLINK-58 4.0 00:11:42 41° ENE 00:11:42 41° ENE 00:13:54 10° ENE
STARLINK-1213 3.8 00:12:02 47° NNE 00:12:02 47° NNE 00:14:27 10° NE
STARLINK-1263 3.8 00:12:53 48° NNE 00:12:53 48° NNE 00:15:20 10° NE
STARLINK-1259 3.8 00:13:47 48° NNE 00:13:47 48° NNE 00:16:16 10° NE
STARLINK-1265 3.7 00:14:09 50° NNE 00:14:09 50° NNE 00:16:42 10° NE
STARLINK-1285 3.7 00:14:38 49° NNE 00:14:38 49° NNE 00:17:08 10° NE
Cosmos 2084 Rocket 3.4 00:09:38 10° NW 00:14:07 83° SW 00:14:58 58° SSE
SL-16 R/B 3.4 00:10:23 15° SE 00:15:10 46° ENE 00:21:02 10° N
STARLINK-1296 3.7 00:16:22 50° NNE 00:16:22 50° NNE 00:18:57 10° NE
Cosmos 1758 Rocket 3.6 00:15:28 57° WSW 00:16:03 64° W 00:20:28 10° N
STARLINK-1260 3.7 00:17:14 51° NNE 00:17:14 51° NNE 00:19:51 10° NE
Cosmos 2298 Rocket 4.3 00:11:46 10° NNW 00:17:04 64° ENE 00:19:50 28° SE
STARLINK-1318 3.7 00:18:06 51° N 00:18:06 51° N 00:20:46 10° NE
STARLINK-75 3.8 00:18:02 45° NW 00:18:08 45° NNW 00:21:16 10° NE
STARLINK-1275 3.6 00:18:59 52° N 00:18:59 52° N 00:21:40 10° NE
STARLINK-48 3.6 00:19:05 57° ESE 00:19:05 57° ESE 00:22:36 10° ENE
STARLINK-1309 3.6 00:19:51 51° N 00:19:51 51° N 00:22:32 10° NE
STARLINK-1282 3.6 00:20:42 51° N 00:20:42 51° N 00:23:26 10° NE
IRAS Rocket 4.2 00:18:06 38° SSE 00:20:22 88° ENE 00:25:55 10° NNW
STARLINK-1280 4.5 00:21:06 37° SE 00:21:06 37° SE 00:24:43 10° ENE
STARLINK-1283 3.8 00:20:03 50° W 00:20:57 68° NNW 00:25:03 10° NE
STARLINK-1313 3.7 00:21:38 48° NNW 00:21:38 48° NNW 00:24:32 10° NE
STARLINK-80 3.6 00:21:07 58° WNW 00:21:36 66° NNW 00:25:24 10° NE
STARLINK-1279 3.7 00:22:33 47° NNW 00:22:33 47° NNW 00:25:28 10° NE
STARLINK-1298 3.6 00:23:16 51° N 00:23:16 51° N 00:26:05 10° NE
STARLINK-1293 3.6 00:24:09 51° NNW 00:24:09 51° NNW 00:27:02 10° NE
SL-16 R/B 3.3 00:22:44 25° SE 00:24:51 33° ESE 00:29:51 10° NE
Cosmos 2208 Rocket 4.2 00:23:37 42° SW 00:25:17 65° WNW 00:30:38 10° NNE
STARLINK-1255 3.6 00:25:54 50° NNW 00:25:54 50° NNW 00:28:50 10° NE
STARLINK-22 3.7 00:26:16 48° NW 00:26:22 48° NNW 00:29:31 10° NE
STARLINK-1297 3.5 00:26:32 58° WNW 00:26:54 63° NNW 00:30:30 10° NE
STARLINK-1311 3.9 00:28:27 39° NNW 00:28:27 39° NNW 00:31:12 10° NE
STARLINK-1286 4.3 00:29:54 38° SE 00:29:54 38° SE 00:33:38 10° ENE
Cosmos 2285 Rocket 4.2 00:23:36 10° NNW 00:29:47 55° WSW 00:31:55 38° SSW
MOZ.5/SAFIR/RUBIN 5/SL-8 4.0 00:29:15 34° SE 00:31:11 65° ENE 00:35:47 10° N
USA 215 3.2 00:28:06 20° SSE 00:32:48 61° SW 00:39:18 10° NW
CZ-2D R/B 2.7 00:27:50 10° NNE 00:32:52 46° E 00:35:02 30° SSE
STARLINK-1281 4.3 00:33:11 39° SE 00:33:11 39° SE 00:36:57 10° ENE
Cosmos-2242 3.2 00:29:50 10° NNW 00:33:59 52° W 00:34:23 50° WSW
Cosmos 1953 Rocket 3.5 00:33:32 55° SSW 00:34:25 75° W 00:38:50 10° N
Meteor 2-10 Rocket 4.2 00:29:46 10° NNW 00:34:25 36° W 00:35:16 34° WSW
Cosmos 2221 3.9 00:32:46 10° N 00:36:47 35° ENE 00:39:28 18° SE
STARLINK-42 4.4 00:36:26 27° NW 00:37:13 32° NNW 00:40:05 10° NE
BREEZE-M R/B 4.3 00:32:12 10° W 00:37:32 38° N 00:40:33 10° ENE
STARLINK-1310 4.1 00:37:58 43° SE 00:38:02 43° SE 00:41:59 10° ENE
STARLINK-1029 3.1 00:39:04 69° N 00:39:04 69° N 00:42:04 10° NE
STARLINK-34 3.4 00:40:02 51° NNW 00:40:03 51° NNW 00:43:05 10° NE
CZ-4C R/B 3.8 00:38:34 34° SSE 00:40:22 68° ENE 00:44:48 10° N
STARLINK-41 4.5 00:40:11 26° NW 00:40:57 30° NNW 00:43:44 10° NE
STARLINK-60 4.0 00:38:17 10° NW 00:41:23 46° NNE 00:44:28 10° ESE
GP-B 3.0 00:37:13 10° N 00:41:42 83° E 00:42:59 46° S
STARLINK-1319 3.9 00:42:43 46° SSE 00:42:59 47° SE 00:46:58 10° ENE
Cosmos 540 Rocket 4.1 00:41:07 32° WSW 00:42:59 45° WNW 00:47:55 10° N
STARLINK-1272 4.1 00:42:02 35° WNW 00:43:01 46° NNW 00:46:28 10° NE
Cosmos 1315 Rocket 4.0 00:39:56 10° N 00:43:37 37° ENE 00:45:45 21° SE
Cosmos 1842 Rocket 4.3 00:39:27 10° N 00:43:49 51° ENE 00:46:04 26° SE
STARLINK-62 3.5 00:43:45 47° NW 00:43:55 48° NNW 00:46:54 10° NE
Cosmos 2360 Rocket 4.0 00:43:58 13° SE 00:47:15 21° E 00:51:24 10° NE
STARLINK-1277 3.8 00:47:31 49° SSE 00:47:57 51° SE 00:51:59 10° ENE
STARLINK-1307 4.2 00:46:48 30° W 00:48:11 46° NNW 00:51:48 10° NE
Helios 1B rocket 4.2 00:46:08 10° NNW 00:49:14 21° WNW 00:50:24 18° W
STARLINK-1290 4.3 00:50:11 28° W 00:51:43 44° NNW 00:55:18 10° NE
Cosmos 2058 4.4 00:50:48 20° SE 00:52:52 32° E 00:56:37 10° NNE
STARLINK-1276 3.7 00:52:19 50° S 00:52:56 56° SE 00:57:00 10° ENE
Cosmos 1980 Rocket 2.8 00:51:50 27° WSW 00:54:30 46° WNW 00:59:57 10° NNE
Cosmos 2074 Rocket 4.0 00:51:22 32° S 00:54:31 88° W 01:00:51 10° N
Shenzhou-11 Module 4.2 00:56:40 14° E 00:56:40 14° E 00:57:05 10° E
STARLINK-1305 3.7 00:57:04 50° S 00:57:52 62° SE 01:01:58 10° ENE
STARLINK-1306 3.6 00:57:24 49° SSW 00:58:19 66° SE 01:02:29 10° ENE
Cosmos 1455 4.2 00:58:09 10° NW 01:00:05 15° W 01:00:05 15° W
CZ-4B R/B 3.9 00:56:32 10° NNE 01:01:46 61° ESE 01:04:34 27° S
STARLINK-1262 3.6 01:01:53 48° SSW 01:02:52 67° SE 01:07:00 10° ENE
STARLINK-1300 3.5 01:06:40 45° SW 01:07:50 73° SE 01:11:59 10° ENE
ADEOS II 3.1 01:05:59 10° NNE 01:10:56 40° E 01:14:39 17° SSE
Cosmos 2263 Rocket 2.1 01:06:31 10° NNW 01:12:06 70° WSW 01:15:58 20° SSE
STARLINK-1295 3.5 01:11:26 41° SW 01:12:48 80° SE 01:16:57 10° ENE
NOSS 2-1 (C) 2.8 01:12:04 51° SW 01:12:50 81° NW 01:16:25 10° NE
UNK 3.7 01:11:40 33° S 01:13:37 64° WSW 01:18:11 10° NNW
STARLINK-29 4.1 01:11:05 10° NW 01:14:10 44° NNE 01:17:14 10° ESE
IRS-1D 4.0 01:09:05 10° NNE 01:14:15 55° E 01:17:31 22° S
STARLINK-64 3.6 01:14:12 33° W 01:15:35 58° NNW 01:19:07 10° NE
SL-4 R/B 2.3 01:11:01 10° WNW 01:15:52 89° SSW 01:20:31 10° ESE
AQUA 3.8 01:11:10 10° NNE 01:15:57 80° ESE 01:18:23 29° S
NOSS 2-1 (D) 3.0 01:16:50 44° WSW 01:17:44 71° NW 01:21:19 10° NNE
STARLINK-1287 3.5 01:16:12 37° SW 01:17:46 86° SE 01:21:56 10° ENE
USA 229 DEB 3.8 01:10:37 10° NW 01:17:56 79° WSW 01:25:35 10° SSE
USA 229 3.8 01:10:43 10° NW 01:18:02 79° SW 01:25:41 10° SSE
NOSS 3-1 (C) 4.1 01:11:14 10° NW 01:18:51 73° WSW 01:27:32 10° SSE
Cosmos 2184 Rocket 4.1 01:16:26 28° SSW 01:19:43 59° W 01:25:49 10° N
NPP 3.6 01:14:30 10° NNE 01:19:55 79° WNW 01:22:54 27° SSW
ARIANE 5 R/B 4.0 01:16:17 10° NE 01:20:37 29° E 01:24:54 10° SSE
STARLINK-25 4.5 01:20:21 25° SSE 01:20:50 26° SE 01:23:46 10° ENE
CZ-4C R/B 4.4 01:18:39 10° WNW 01:22:44 21° NNW 01:27:23 10° NNE
Cosmos 1892 2.9 01:21:53 30° S 01:23:37 65° E 01:27:23 10° NNE
BREEZE-M DEB (TANK) 3.0 01:23:14 27° NW 01:23:54 36° N 01:26:35 10° ENE
STARLINK-1299 3.8 01:24:05 28° WSW 01:26:16 73° NNW 01:30:32 10° NE
NOSS 3-1 (A) 4.1 01:19:23 10° NW 01:27:02 89° NE 01:35:47 10° SE
STARLINK-1302 3.6 01:25:46 30° WSW 01:27:44 82° NNW 01:31:53 10° NE
Cosmos 1610 Rocket 4.5 01:24:10 25° SSW 01:27:58 76° W 01:34:12 10° N
BREEZE-M DEB (TANK) 3.3 01:26:44 10° NW 01:28:50 27° NNE 01:31:13 10° ENE
STARLINK-24 4.4 01:28:48 28° S 01:30:08 36° SE 01:33:49 10° ENE
Cosmos 1869 3.2 01:27:29 10° NNW 01:31:18 63° W 01:33:00 31° SSW
STARLINK-1273 3.7 01:30:32 27° WSW 01:32:41 76° NNW 01:36:51 10° NE
Cosmos 2322 Rocket 2.2 01:29:42 26° SSW 01:33:03 86° WNW 01:38:42 10° NNE
In-Cosmos 22 Rocket 4.1 01:31:02 22° S 01:34:43 89° WNW 01:40:13 10° N
STARLINK-1288 3.8 01:35:19 24° WSW 01:37:41 70° NNW 01:41:49 10° NE
STARLINK-61 3.4 01:35:51 29° WSW 01:37:44 88° NW 01:41:41 10° NE
STARLINK-81 4.1 01:38:56 27° S 01:40:13 38° SE 01:43:37 10° ENE
Resurs 1-4 Rocket 2.7 01:36:43 10° N 01:41:44 44° WNW 01:44:54 21° SW
STARLINK-54 3.9 01:40:39 29° S 01:41:59 43° SE 01:45:27 10° ENE
Cosmos 1076 Rocket 3.5 01:39:51 25° SSW 01:42:22 77° W 01:46:46 10° N
STARLINK-1308 3.9 01:40:08 22° WSW 01:42:42 65° NNW 01:46:50 10° NE
STARLINK-77 4.0 01:42:03 27° S 01:43:27 40° SE 01:46:53 10° ENE
Cosmos 2151 3.9 01:40:31 12° SSE 01:44:10 45° E 01:48:17 10° NNE
Cosmos 1125 Rocket 4.0 01:41:10 10° NW 01:45:57 38° WSW 01:48:54 21° SSW
H-2A R/B 4.0 01:42:22 10° SE 01:46:18 32° ENE 01:50:18 10° N
STARLINK-79 3.8 01:46:45 27° SSW 01:48:19 45° SE 01:51:48 10° ENE
STARLINK-52 3.1 01:46:20 10° NW 01:49:33 76° NNE 01:52:45 10° ESE
Cosmos 962 Rocket 4.5 01:44:45 17° S 01:49:39 86° W 01:55:54 10° N
STARLINK-78 3.8 01:48:20 26° SSW 01:49:58 47° SE 01:53:28 10° ENE
STARLINK-1017 4.5 01:47:56 22° S 01:50:03 38° SE 01:53:54 10° ENE
STARLINK-57 3.6 01:49:58 26° SSW 01:51:39 51° SE 01:55:10 10° ENE
Cosmos 1408 2.5 01:49:31 22° S 01:51:50 86° ESE 01:55:32 10° N
STARLINK-1304 4.1 01:49:41 17° WSW 01:52:40 57° NNW 01:56:46 10° NE
STARLINK-49 3.7 01:51:26 26° SSW 01:53:10 50° SE 01:56:41 10° ENE
Cosmos 2154 Rocket 4.4 01:49:51 20° SW 01:54:05 50° WNW 02:00:09 10° N
STARLINK-27 3.6 01:53:02 25° SSW 01:54:50 52° SE 01:58:23 10° ENE
STARLINK-1023 4.3 01:52:43 21° SSW 01:54:59 41° SE 01:58:55 10° ENE
GEOS 3 Rocket 3.6 01:50:35 10° SSE 01:55:41 63° SW 02:00:57 10° NW
STARLINK-74 3.6 01:54:35 25° SSW 01:56:27 53° SE 02:00:00 10° ENE
STARLINK-39 3.5 01:56:10 24° SSW 01:58:05 56° SE 02:01:39 10° ENE
Cosmos 1825 2.4 01:55:27 15° S 01:58:25 67° E 02:02:10 10° NNE
Cosmos 2237 4.3 01:54:30 18° SSW 01:58:53 84° ESE 02:04:38 10° NNE
STARLINK-1278 4.4 01:55:21 14° W 01:58:53 48° NNW 02:03:02 10° NE
SL-16 R/B 3.4 01:55:29 19° SW 01:58:56 31° W 02:04:19 10° NW
STARLINK-31 3.5 01:57:45 24° SSW 01:59:44 58° SE 02:03:19 10° ENE
STARLINK-1007 4.2 01:57:32 21° SSW 02:00:00 45° SE 02:03:58 10° ENE
SL-08 R/B 3.2 01:56:04 10° SSE 02:00:42 89° ENE 02:05:19 10° NNW
STARLINK-1280 4.5 01:57:08 13° W 02:00:45 47° NNW 02:04:53 10° NE
STARLINK-69 3.3 01:59:20 23° SW 02:01:22 65° SE 02:04:56 10° ENE
STARLINK-21 3.4 02:00:55 23° SW 02:03:01 63° SE 02:06:36 10° ENE
STARLINK-45 3.3 02:02:35 22° SW 02:04:47 72° SE 02:08:24 10° ENE
STARLINK-1048 4.1 02:02:18 20° SSW 02:04:56 50° SE 02:08:57 10° ENE
IRS-P3 4.1 01:59:59 10° N 02:05:19 77° WNW 02:09:52 14° SSW
Cosmos 1844 Rocket 3.0 02:01:03 10° NNW 02:06:40 72° ENE 02:12:13 10° SSE
STARLINK-76 3.3 02:05:36 21° SW 02:07:53 70° SE 02:11:31 10° ENE
STARLINK-70 3.3 02:05:59 20° SW 02:08:21 75° SE 02:12:01 10° ENE
SL-16 R/B 3.0 02:04:36 15° WSW 02:08:50 40° WNW 02:14:10 10° NNE
STARLINK-23 3.3 02:07:11 20° SW 02:09:31 72° SE 02:13:09 10° ENE
STARLINK-1049 4.0 02:07:06 19° SSW 02:09:54 55° SE 02:13:58 10° ENE
STARLINK-32 3.2 02:08:37 20° SW 02:10:59 74° SE 02:14:33 10° ENE
CZ-2D R/B 3.5 02:08:28 10° N 02:12:38 25° WNW 02:16:21 12° WSW
STARLINK-40 3.2 02:10:18 19° SW 02:12:46 77° SE 02:16:24 10° ENE
COSMOS 2428 4.1 02:08:15 10° SSE 02:13:19 34° ESE 02:18:23 10° NE
Cosmos 2221 4.0 02:10:49 10° NW 02:14:06 21° W 02:16:17 15° SW
CZ-4C R/B 4.2 02:10:47 10° SE 02:14:15 45° ENE 02:17:44 10° N
STARLINK-44 3.2 02:11:49 19° SW 02:14:20 79° SE 02:17:59 10° ENE
STARLINK-1051 3.8 02:11:51 17° SW 02:14:51 60° SE 02:18:57 10° ENE
Cosmos 773 Rocket 4.0 02:11:02 14° SSW 02:15:34 85° WNW 02:20:54 10° NNE
STARLINK-37 3.2 02:13:33 18° SW 02:16:10 87° SE 02:19:49 10° NE
STARLINK-60 4.1 02:14:43 10° W 02:17:18 23° SW 02:19:53 10° S
STARLINK-36 3.2 02:14:56 17° SW 02:17:35 84° SE 02:21:14 10° ENE
FALCON 9 DEB 3.1 02:15:24 10° NW 02:18:53 86° NE 02:22:21 10° SE
STARLINK-63 3.2 02:18:10 16° SW 02:20:58 87° NW 02:24:35 10° NE
STARLINK-35 3.2 02:19:32 16° SW 02:22:19 89° NNW 02:25:54 10° NE
STARLINK-51 3.2 02:21:14 15° WSW 02:24:07 85° NW 02:27:45 10° NE
Cosmos 2366 rocket 4.0 02:18:14 10° S 02:24:29 87° W 02:30:50 10° N
STARLINK-1028 3.7 02:21:25 15° SW 02:24:47 71° SE 02:28:55 10° ENE
STARLINK-30 3.3 02:22:49 15° WSW 02:25:47 83° NW 02:29:26 10° NE
STARLINK-72 3.2 02:24:13 14° WSW 02:27:11 81° NW 02:30:46 10° NE
Shenzhou-11 Module 1.4 02:26:47 11° W 02:29:02 56° S 02:31:27 10° ESE
STARLINK-1021 3.6 02:26:14 14° SW 02:29:47 77° SE 02:33:56 10° ENE
Cosmos 2058 4.5 02:27:00 12° WSW 02:29:49 22° WNW 02:33:09 10° NNW
STARLINK-59 3.3 02:27:25 13° WSW 02:30:32 73° NW 02:34:07 10° NE
Cosmos 2360 Rocket 2.5 02:25:44 13° SW 02:30:46 58° WNW 02:36:21 10° NNE
Cosmos 1933 3.8 02:27:33 10° N 02:31:35 65° E 02:35:34 10° SSE
STARLINK-1010 3.7 02:28:17 13° SW 02:32:02 84° SE 02:36:18 10° ENE
STARLINK-56 3.4 02:29:04 13° WSW 02:32:18 74° NNW 02:35:56 10° NE
STARLINK-1352 4.4 02:28:31 10° NW 02:32:27 53° NNE 02:36:22 10° ESE
STARLINK-73 3.4 02:30:38 12° WSW 02:33:56 72° NNW 02:37:34 10° NE
STARLINK-1019 3.6 02:30:59 12° SW 02:34:44 84° SE 02:38:53 10° ENE
Cosmos 1328 Rocket 3.7 02:30:44 10° N 02:35:09 81° E 02:39:30 10° S
STARLINK-38 3.4 02:32:12 12° WSW 02:35:34 70° NNW 02:39:11 10° NE
STARLINK-1368 4.3 02:33:11 10° NW 02:37:10 56° NNE 02:41:07 10° ESE
STARLINK-65 3.5 02:33:46 11° WSW 02:37:12 68° NNW 02:40:50 10° NE
STARLINK-68 3.6 02:34:23 11° WSW 02:37:54 63° NNW 02:41:33 10° NE
STARLINK-53 3.6 02:35:24 10° WSW 02:38:55 63° NNW 02:42:32 10° NE
STARLINK-1012 3.6 02:35:47 11° SW 02:39:43 90° NNE 02:43:53 10° NE
BREEZE-M DEB (TANK) 4.3 02:35:34 10° SSW 02:40:03 26° SSE 02:42:40 10° E
STARLINK-50 3.6 02:37:26 10° WSW 02:41:11 68° NNW 02:44:59 10° NE
STARLINK-1369 4.2 02:37:37 10° NW 02:41:37 60° NNE 02:45:36 10° ESE
Cosmos 2333 Rocket 2.4 02:38:34 10° SSW 02:44:11 72° ESE 02:49:52 10° NNE
Meteor 1-28 Rocket 3.8 02:41:48 10° SSW 02:45:18 38° W 02:48:49 10° NNW
STARLINK-1372 4.1 02:41:47 10° NW 02:45:45 64° NNE 02:49:41 10° ESE
STARLINK-71 3.9 02:41:58 10° WSW 02:45:58 63° NNW 02:49:58 10° NE
Landsat 5 3.6 02:42:00 10° S 02:46:31 81° WSW 02:50:59 10° NNW
Cosmos 2219 Rocket 2.4 02:42:44 10° SSW 02:48:18 73° ESE 02:53:53 10° NNE
STARLINK-1026 3.7 02:45:32 10° WSW 02:49:40 78° NNW 02:53:49 10° NE
Cosmos 2322 3.8 02:44:00 10° SSW 02:49:43 75° WNW 02:55:28 10° NNE
STARLINK-29 4.0 02:47:31 10° W 02:50:09 24° SW 02:52:45 10° S
Cosmos 1727 Rocket 4.0 02:44:11 10° N 02:50:22 78° W 02:56:31 10° S
ADEOS II 3.3 02:46:00 10° N 02:50:27 29° WNW 02:54:53 10° WSW
STARLINK-1378 3.9 02:46:30 10° NW 02:50:31 69° NNE 02:54:31 10° ESE
IDEFIX/ARIANE 42P 2.6 02:49:01 10° N 02:54:18 76° WNW 02:59:31 10° SSW
Cosmos 1782 4.0 02:50:45 10° N 02:54:38 47° ENE 02:58:30 10° SSE
STARLINK-1013 3.8 02:50:32 10° WSW 02:54:40 72° NNW 02:58:49 10° NE
ERS-2 2.9 02:51:34 10° SSW 02:54:54 33° W 02:58:16 10° NNW
STARLINK-1379 3.8 02:51:00 10° NW 02:55:02 74° NNE 02:59:04 10° ESE
SL-4 R/B 3.6 02:51:41 10° W 02:55:04 20° SW 02:58:19 10° S
Cosmos 1606 3.0 02:52:00 10° NNW 02:55:40 48° W 02:59:19 10° SSW
STARLINK-25 3.9 02:54:22 10° WSW 02:57:42 46° NNW 03:01:04 10° NE
ATLAS 5 CENTAUR R/B 2.9 02:55:02 10° S 02:58:42 33° ESE 03:02:43 10° NE
STARLINK-1329 3.8 02:54:49 10° NW 02:58:52 78° NNE 03:02:55 10° ESE
Cosmos 2333 4.3 02:53:36 10° SW 02:59:09 66° WNW 03:04:47 10° NNE
STARLINK-1009 3.9 02:55:31 10° WSW 02:59:39 67° NNW 03:03:47 10° NE
ARIANE 5 R/B 3.3 02:55:13 10° N 02:59:45 36° WNW 03:04:16 10° SW
BREEZE-M R/B 2.1 02:57:33 10° WNW 03:00:34 73° NNE 03:02:58 10° ESE
